一网星座-0319星 (ONEWEB-0319 )

导读 | 豆包AI

ONEWEB-0319是英国OneWeb卫星星座中的一颗低轨通信卫星,于2021年8月21日发射入轨。该卫星属于OneWeb全球宽带互联网星座计划的组成部分,运行在约1200公里高度的近地轨道,质量约175-200千克,工作在Ku波段,为全球用户特别是偏远地区提供低延迟、高带宽的互联网接入服务,同时其星座布局也具备潜在的军事应用价值。

基本信息
目录编号:
49105
目录名称:
ONEWEB-0319
国际标识:
2021-075AG
轨道中心:
EARTH
卫星名称:
一网星座-0319星
卫星全名:
一网星座-0319星 (ONEWEB-0319 )
卫星状态:
在轨 (已飞行1666 天)
发射日期:
2021-08-21 UTC
国别 :
英国 (GB)
星等 :
--
轨道信息
数据来源 国际轨道数据 AOE轨道数据
星历时间 2026-03-13T14:23:05+0800
1天前
查看轨道信息
2026-03-11T16:00:00+0800
2天前
查看轨道信息
半长轴 7571.848km 7571.845km
偏心率 0.0001408 0.0001401
轨道倾角 87.916° 87.915°
近地点辐角 67.836° 83.167°
升交点赤经 24.916° 25.301°
平近点角 292.292° 114.372°
近地点 1192.644km 1192.647km
远地点 1194.778km 1194.769km
周期 109.286分钟 109.285分钟
每日圈数 13.176496 13.176505
详细信息
平衡模式:
三轴稳定
覆盖范围:
全球
运营商:
一网卫星公司
运营商所在国:
英国
制造商(研发单位):
一网卫星公司
制造商所在国:
英国
使用方式:
暂无
卫星简介
OneWeb卫星网络由648颗重约125公斤的微型卫星组成,运行在1200公里的轨道上。 每颗卫星都能够提供至少每秒8千兆位的吞吐量,以使用其高吞吐量的Ku频段有效载荷为家庭和移动平台提供互联网接入。该卫星仍在工作。
2D轨道图
3D轨道图
轨道高度分析图
轨道倾角分析图
轨道综合分析图
查看轨道综合分析图